Location: Zagreb
(45.8150°N, 15.9819°E)
Time: 17:48:13
(UTC+02:00)

ISS - Pass Details

Date: 22 July 2024
Orbit: 415 x 417 km, 51.6° (Epoch: 23 June)

Event Time Altitude Azimuth Distance (km) Brightness Sun altitude
Rises 21:23:17 0° 298° (WNW) 2,369 2.1 -7.5°
Reaches altitude 10° 21:25:25 10° 302° (WNW) 1,499 0.8 -7.8°
Maximum altitude 21:28:44 57° 22° (NNE) 498 -3.3 -8.3°
Drops below altitude 10° 21:32:01 10° 103° (ESE) 1,487 -1.5 -8.7°
Enters shadow 21:32:06 10° 103° (ESE) 1,517 -1.5 -8.7°
